FW9532 Weather Reports


time (UTC)temp
F
wind
direction
speed
knots
gust
knots
rain 1hr
in
rain 24hr
in
rain mn
in
humidity
%
barometer
mb
20260906225036 97 101 5.2 11.3 0.00 0.00 0.00 46 1011.6
20260906224605 98 146 4.3 12.2 0.00 0.00 0.00 45 1011.7
20260906224034 97 135 5.2 12.2 0.00 0.00 0.00 45 1011.6
20260906223534 98 83 2.6 13.0 0.00 0.00 0.00 45 1011.7
20260906223052 97 93 5.2 13.0 0.00 0.00 0.00 46 1011.7
20260906222533 98 105 6.1 13.0 0.00 0.00 0.00 46 1011.7
20260906222037 98 160 5.2 10.4 0.00 0.00 0.00 46 1011.7
20260906221552 98 160 5.2 12.2 0.00 0.00 0.00 46 1011.7
20260906221031 98 217 5.2 12.2 0.00 0.00 0.00 46 1011.6
20260906220530 97 162 6.1 12.2 0.00 0.00 0.00 47 1011.7
20260906220121 97 139 5.2 10.4 0.00 0.00 0.00 47 1011.6
20260906215531 97 117 4.3 9.6 0.00 0.00 0.00 47 1011.7
20260906215031 97 126 3.5 8.7 0.00 0.00 0.00 47 1011.7
20260906214558 98 69 5.2 10.4 0.00 0.00 0.00 46 1011.7
20260906214031 97 122 3.5 12.2 0.00 0.00 0.00 47 1011.7
20260906213531 98 123 6.1 12.2 0.00 0.00 0.00 46 1011.7
20260906213058 98 151 4.3 12.2 0.00 0.00 0.00 45 1011.8
20260906212530 98 231 3.5 9.6 0.00 0.00 0.00 47 1011.9
20260906212126 97 132 3.5 10.4 0.00 0.00 0.00 47 1012.0
20260906211610 98 118 4.3 10.4 0.00 0.00 0.00 46 1012.1
20260906211035 98 135 2.6 9.6 0.00 0.00 0.00 47 1012.1
20260906210536 98 36 4.3 10.4 0.00 0.00 0.00 46 1012.1
20260906210111 98 119 6.1 10.4 0.00 0.00 0.00 46 1012.2
20260906205535 98 0 3.5 13.9 0.00 0.00 0.00 46 1012.2
20260906205036 97 114 6.1 13.9 0.00 0.00 0.00 47 1012.2
20260906204554 98 117 3.5 15.6 0.00 0.00 0.00 46 1012.3
20260906204036 98 125 5.2 15.6 0.00 0.00 0.00 46 1012.3
20260906203535 98 147 6.1 13.9 0.00 0.00 0.00 45 1012.5
20260906203101 98 92 3.5 13.9 0.00 0.00 0.00 46 1012.4
20260906202535 98 136 3.5 13.9 0.00 0.00 0.00 47 1012.5
20260906202035 97 146 7.0 13.9 0.00 0.00 0.00 46 1012.7
20260906201558 97 73 2.6 11.3 0.00 0.00 0.00 46 1012.7
20260906201035 98 131 6.1 11.3 0.00 0.00 0.00 46 1012.7
20260906200535 98 77 4.3 9.6 0.00 0.00 0.00 45 1012.8
20260906200057 98 129 6.1 9.6 0.00 0.00 0.00 46 1012.9
20260906195536 97 93 3.5 8.7 0.00 0.00 0.00 47 1012.9
20260906195036 97 47 4.3 8.7 0.00 0.00 0.00 47 1012.9
20260906194615 97 108 4.3 7.8 0.00 0.00 0.00 46 1013.0
20260906194036 97 133 2.6 9.6 0.00 0.00 0.00 47 1013.0
20260906193536 97 127 3.5 9.6 0.00 0.00 0.00 46 1013.1
20260906193104 98 131 3.5 9.6 0.00 0.00 0.00 46 1013.1
20260906192535 97 226 4.3 7.8 0.00 0.00 0.00 47 1013.3
20260906192036 97 128 3.5 7.8 0.00 0.00 0.00 48 1013.4
20260906191548 97 169 2.6 13.0 0.00 0.00 0.00 48 1013.4
20260906191035 97 121 6.1 13.0 0.00 0.00 0.00 47 1013.5
20260906190536 96 127 6.1 11.3 0.00 0.00 0.00 48 1013.5
20260906185535 98 126 6.1 9.6 0.00 0.00 0.00 46 1013.6
20260906185038 97 138 2.6 13.0 0.00 0.00 0.00 47 1013.7
20260906184607 97 146 4.3 13.0 0.00 0.00 0.00 47 1013.6
20260906184039 97 159 7.0 13.0 0.00 0.00 0.00 48 1013.7
20260906183536 96 151 3.5 10.4 0.00 0.00 0.00 49 1013.6
20260906183101 96 110 7.0 10.4 0.00 0.00 0.00 48 1013.7
20260906182535 97 141 5.2 8.7 0.00 0.00 0.00 49 1013.9
20260906182038 96 175 3.5 7.8 0.00 0.00 0.00 50 1014.0
20260906181600 95 153 2.6 10.4 0.00 0.00 0.00 51 1014.1
20260906181030 96 58 3.5 12.2 0.00 0.00 0.00 50 1014.2
20260906180535 96 131 7.0 12.2 0.00 0.00 0.00 50 1014.3
20260906180048 96 145 4.3 10.4 0.00 0.00 0.00 51 1014.3
20260906175531 95 103 4.3 11.3 0.00 0.00 0.00 51 1014.3
20260906175037 95 70 6.1 11.3 0.00 0.00 0.00 51 1014.5
20260906174555 95 122 4.3 11.3 0.00 0.00 0.00 51 1014.6
20260906174034 95 165 6.1 11.3 0.00 0.00 0.00 52 1014.6
20260906173531 95 175 5.2 13.9 0.00 0.00 0.00 52 1014.6
20260906173052 95 186 7.0 13.9 0.00 0.00 0.00 52 1014.7
20260906172531 95 105 8.7 13.9 0.00 0.00 0.00 52 1014.8
20260906172030 95 168 2.6 10.4 0.00 0.00 0.00 52 1014.7
20260906171607 95 102 6.1 10.4 0.00 0.00 0.00 53 1014.8
20260906171034 94 156 3.5 9.6 0.00 0.00 0.00 54 1014.9
20260906170530 94 139 3.5 10.4 0.00 0.00 0.00 54 1015.0
20260906170059 94 103 6.1 10.4 0.00 0.00 0.00 53 1015.1
20260906165531 94 225 5.2 9.6 0.00 0.00 0.00 54 1015.2
20260906165036 94 152 2.6 7.8 0.00 0.00 0.00 55 1015.1
20260906164559 93 108 3.5 7.8 0.00 0.00 0.00 56 1015.3
20260906164036 93 108 3.5 7.8 0.00 0.00 0.00 54 1015.3
20260906163532 93 160 3.5 8.7 0.00 0.00 0.00 55 1015.2
20260906163054 92 89 4.3 8.7 0.00 0.00 0.00 56 1015.1
20260906162534 92 89 5.2 8.7 0.00 0.00 0.00 56 1015.1
20260906162030 92 89 4.3 8.7 0.00 0.00 0.00 56 1015.1
20260906161559 92 156 2.6 7.8 0.00 0.00 0.00 57 1015.0
20260906161033 92 77 4.3 9.6 0.00 0.00 0.00 57 1015.0
20260906160533 92 83 4.3 9.6 0.00 0.00 0.00 57 1015.0
20260906160059 92 110 2.6 8.7 0.00 0.00 0.00 57 1015.0
20260906155535 91 95 4.3 8.7 0.00 0.00 0.00 57 1015.0
20260906155034 91 128 4.3 7.8 0.00 0.00 0.00 58 1015.0
20260906154555 91 188 2.6 7.0 0.00 0.00 0.00 58 1015.0
20260906154036 91 176 4.3 7.8 0.00 0.00 0.00 59 1015.0
20260906153534 90 113 5.2 7.8 0.00 0.00 0.00 59 1015.0
20260906153049 90 53 0.9 6.1 0.00 0.00 0.00 60 1015.0
20260906152533 91 113 0.9 5.2 0.00 0.00 0.00 60 1014.9
20260906152033 90 15 3.5 5.2 0.00 0.00 0.00 61 1014.9
20260906151549 90 102 1.7 5.2 0.00 0.00 0.00 62 1014.9
20260906151033 89 173 1.7 5.2 0.00 0.00 0.00 64 1014.9
20260906150533 89 113 0.9 4.3 0.00 0.00 0.00 64 1014.8
20260906150104 89 330 0.9 3.5 0.00 0.00 0.00 67 1014.9
20260906145533 89 16 1.7 3.5 0.00 0.00 0.00 65 1014.7
20260906145034 89 126 1.7 2.6 0.00 0.00 0.00 68 1014.9
20260906144602 88 176 0.0 4.3 0.00 0.00 0.00 69 1014.8
20260906144033 87 337 0.0 4.3 0.00 0.00 0.00 71 1014.7
20260906143535 87 65 0.0 3.5 0.00 0.00 0.00 72 1014.8
20260906143051 86 73 0.9 3.5 0.00 0.00 0.00 73 1014.9
20260906142533 85 113 0.9 3.5 0.00 0.00 0.00 76 1015.0
20260906142034 85 39 1.7 3.5 0.00 0.00 0.00 77 1015.1
20260906141549 84 34 0.9 3.5 0.00 0.00 0.00 77 1015.1
20260906141036 84 40 1.7 3.5 0.00 0.00 0.00 78 1015.1
20260906140535 84 59 0.9 3.5 0.00 0.00 0.00 78 1015.0
20260906140107 83 49 1.7 3.5 0.00 0.00 0.00 79 1015.1
20260906135534 83 72 1.7 3.5 0.00 0.00 0.00 81 1015.0
20260906135033 82 81 1.7 3.5 0.00 0.00 0.00 81 1014.9
20260906134550 83 76 1.7 2.6 0.00 0.00 0.00 81 1015.0
20260906134034 82 75 0.9 1.7 0.00 0.00 0.00 82 1015.0
20260906133532 82 86 0.0 2.6 0.00 0.00 0.00 83 1015.0
20260906133050 81 80 0.9 2.6 0.00 0.00 0.00 84 1015.1
20260906132534 81 58 0.9 2.6 0.00 0.00 0.00 85 1015.0
20260906132034 81 95 0.9 2.6 0.00 0.00 0.00 85 1015.0
20260906131549 80 80 0.9 2.6 0.00 0.00 0.00 86 1015.0
20260906131034 80 106 0.9 2.6 0.00 0.00 0.00 86 1015.1
20260906130533 80 70 0.9 1.7 0.00 0.00 0.00 86 1014.9
20260906130057 79 69 0.0 1.7 0.00 0.00 0.00 87 1014.7
20260906125537 79 72 0.0 1.7 0.00 0.00 0.00 88 1014.8
20260906125035 78 69 0.0 1.7 0.00 0.00 0.00 89 1014.8
20260906124552 78 62 0.0 1.7 0.00 0.00 0.00 89 1014.7
20260906124034 78 60 0.0 0.9 0.00 0.00 0.00 89 1014.7
20260906123534 77 67 0.0 0.9 0.00 0.00 0.00 90 1014.6
20260906123050 77 65 0.0 0.9 0.00 0.00 0.00 91 1014.5
20260906122535 76 0 0.0 0.9 0.00 0.00 0.00 92 1014.5
20260906122031 76 0 0.0 0.9 0.00 0.00 0.00 92 1014.5
20260906121557 76 53 0.0 0.9 0.00 0.00 0.00 92 1014.5
20260906121033 76 71 0.0 0.9 0.00 0.00 0.00 92 1014.4
20260906120532 76 70 0.0 0.9 0.00 0.00 0.00 92 1014.3
20260906120106 76 0 0.0 0.9 0.00 0.00 0.00 92 1014.2
20260906115536 76 70 0.0 0.9 0.00 0.00 0.00 91 1014.3
20260906115033 76 0 0.0 0.9 0.00 0.00 0.00 91 1014.3
20260906114552 77 0 0.0 0.9 0.00 0.00 0.00 91 1014.3
20260906114034 77 0 0.0 1.7 0.00 0.00 0.00 91 1014.3
20260906113534 77 0 0.0 1.7 0.00 0.00 0.00 91 1014.2
20260906113058 77 0 0.0 1.7 0.00 0.00 0.00 91 1014.3
20260906112533 77 122 0.0 0.9 0.00 0.00 0.00 91 1014.1
20260906112031 77 122 0.0 0.9 0.00 0.00 0.00 90 1014.1
20260906111550 77 0 0.0 0.9 0.00 0.00 0.00 90 1014.0
20260906111034 77 0 0.0 0.9 0.00 0.00 0.00 90 1014.0
20260906110534 77 0 0.0 0.9 0.00 0.00 0.00 90 1014.0
20260906110055 77 0 0.0 0.9 0.00 0.00 0.00 90 1013.9
20260906105534 77 122 0.0 0.9 0.00 0.00 0.00 90 1014.0
20260906105034 77 0 0.0 0.9 0.00 0.00 0.00 90 1013.8
20260906104608 77 0 0.0 0.9 0.00 0.00 0.00 90 1013.6
20260906104034 77 128 0.0 0.9 0.00 0.00 0.00 89 1013.7
20260906103533 77 128 0.0 0.9 0.00 0.00 0.00 89 1013.6
20260906103058 77 144 0.0 0.9 0.00 0.00 0.00 89 1013.6
20260906102536 77 0 0.0 1.7 0.00 0.00 0.00 89 1013.5
20260906102034 77 0 0.0 1.7 0.00 0.00 0.00 89 1013.5
20260906101556 77 0 0.0 1.7 0.00 0.00 0.00 89 1013.6
20260906101034 77 115 0.0 1.7 0.00 0.00 0.00 89 1013.6
20260906100534 78 117 0.0 0.9 0.00 0.00 0.00 88 1013.6
20260906100054 78 112 0.0 0.0 0.00 0.00 0.00 88 1013.7
20260906095534 78 0 0.0 0.0 0.00 0.00 0.00 87 1013.6
20260906095033 78 0 0.0 0.0 0.00 0.00 0.00 87 1013.6
20260906094622 78 0 0.0 0.0 0.00 0.00 0.00 87 1013.5
20260906094034 78 0 0.0 0.0 0.00 0.00 0.00 87 1013.5
20260906093534 78 0 0.0 0.9 0.00 0.00 0.00 87 1013.4
20260906093101 78 0 0.0 0.9 0.00 0.00 0.00 87 1013.4
20260906092534 78 139 0.0 0.9 0.00 0.00 0.00 87 1013.3
20260906092035 78 0 0.0 0.9 0.00 0.00 0.00 86 1013.3
20260906091602 78 0 0.0 0.9 0.00 0.00 0.00 86 1013.3
20260906091036 78 136 0.0 0.9 0.00 0.00 0.00 86 1013.3
20260906090535 78 0 0.0 0.9 0.00 0.00 0.00 86 1013.2
20260906090056 79 0 0.0 1.7 0.00 0.00 0.00 86 1013.3
20260906085534 79 0 0.0 2.6 0.00 0.00 0.00 85 1013.2
20260906085035 79 159 0.9 3.5 0.00 0.00 0.00 85 1013.2
20260906084550 79 0 1.7 3.5 0.00 0.00 0.00 85 1013.0
20260906084035 79 149 1.7 3.5 0.00 0.00 0.00 84 1013.1
20260906083535 79 136 1.7 3.5 0.00 0.00 0.00 84 1013.0
20260906083059 79 103 0.9 1.7 0.00 0.00 0.00 84 1013.0
20260906082534 79 128 0.0 2.6 0.00 0.00 0.00 84 1013.0
20260906082034 79 127 0.0 2.6 0.00 0.00 0.00 83 1012.9
20260906081557 79 143 1.7 4.3 0.00 0.00 0.00 83 1013.0
20260906081034 79 149 0.0 4.3 0.00 0.00 0.00 83 1013.0
20260906080535 80 153 1.7 4.3 0.00 0.00 0.00 83 1013.1
20260906080056 80 172 0.0 2.6 0.00 0.00 0.00 82 1013.0
20260906075535 80 0 0.0 2.6 0.00 0.00 0.00 82 1012.9
20260906075034 80 0 0.0 2.6 0.00 0.00 0.00 82 1012.8
20260906074555 80 191 1.7 3.5 0.00 0.00 0.00 81 1012.8
20260906074033 80 182 0.9 3.5 0.00 0.00 0.00 81 1012.9
20260906073535 80 200 0.9 2.6 0.00 0.00 0.00 81 1012.9
20260906073057 80 163 0.9 3.5 0.00 0.00 0.00 80 1012.9
20260906072531 80 147 0.0 5.2 0.00 0.00 0.00 80 1012.9
20260906072034 80 164 1.7 5.2 0.00 0.00 0.00 80 1013.0
20260906071555 80 158 1.7 5.2 0.00 0.00 0.00 80 1013.1
20260906071036 80 168 0.9 3.5 0.00 0.00 0.00 79 1013.1
20260906070534 81 195 0.9 3.5 0.00 0.00 0.00 79 1013.2
20260906070057 81 168 1.7 2.6 0.00 0.00 0.00 79 1013.3
20260906065535 81 163 0.9 2.6 0.00 0.00 0.00 79 1013.4
20260906065035 81 168 0.9 3.5 0.00 0.00 0.00 79 1013.4
20260906064551 81 0 0.9 5.2 0.00 0.00 0.00 78 1013.4
20260906064035 81 159 0.9 5.2 0.00 0.00 0.00 78 1013.4
20260906063530 81 171 2.6 5.2 0.00 0.00 0.00 78 1013.4
20260906063057 81 159 2.6 7.8 0.00 0.00 0.00 78 1013.4
20260906062530 82 153 2.6 7.8 0.00 0.00 0.00 78 1013.3
20260906062034 82 117 4.3 7.8 0.00 0.00 0.00 78 1013.3
20260906061600 82 129 2.6 4.3 0.00 0.00 0.00 78 1013.2
20260906061034 82 140 1.7 4.3 0.00 0.00 0.00 77 1013.0
20260906060534 82 139 1.7 5.2 0.00 0.00 0.00 77 1013.1
20260906060058 82 137 2.6 5.2 0.00 0.00 0.00 77 1013.1
20260906055534 82 139 2.6 5.2 0.00 0.00 0.00 77 1013.2
20260906055031 82 136 2.6 5.2 0.00 0.00 0.00 77 1013.4
20260906054551 82 163 0.9 3.5 0.00 0.00 0.00 77 1013.4
20260906054034 82 137 0.0 3.5 0.00 0.00 0.00 77 1013.4
20260906053531 82 136 1.7 3.5 0.00 0.00 0.00 76 1013.3
20260906053050 82 238 0.0 1.7 0.00 0.00 0.00 76 1013.3
20260906052531 82 170 0.0 1.7 0.00 0.00 0.00 76 1013.3
20260906052031 83 239 0.0 2.6 0.00 0.00 0.00 76 1013.3
20260906051546 83 0 0.0 2.6 0.00 0.00 0.00 76 1013.2
20260906051031 83 160 0.9 4.3 0.00 0.00 0.00 76 1013.2
20260906050534 83 163 1.7 4.3 0.00 0.00 0.00 75 1013.2
20260906050115 83 166 0.9 2.6 0.00 0.00 0.00 75 1013.2
20260906045534 83 193 0.0 3.5 0.00 0.00 0.00 75 1013.2
20260906045034 83 161 0.9 3.5 0.00 0.00 0.00 75 1013.4
20260906044554 83 155 1.7 3.5 0.00 0.00 0.00 74 1013.4
20260906044034 83 138 1.7 3.5 0.00 0.00 0.00 74 1013.5
20260906043531 83 170 0.9 3.5 0.00 0.00 0.00 74 1013.5
20260906043049 83 111 1.7 3.5 0.00 0.00 0.00 73 1013.6
20260906042534 84 147 0.9 4.3 0.00 0.00 0.00 73 1013.4
20260906042034 84 144 2.6 4.3 0.00 0.00 0.00 73 1013.2
20260906041558 84 142 1.7 4.3 0.00 0.00 0.00 72 1013.3
20260906041035 84 136 2.6 4.3 0.00 0.00 0.00 72 1013.4
20260906040537 84 136 1.7 5.2 0.00 0.00 0.00 72 1013.3
20260906040125 84 136 2.6 5.2 0.00 0.00 0.00 71 1013.3
20260906035539 84 124 2.6 5.2 0.00 0.00 0.00 71 1013.2
20260906035037 85 151 1.7 4.3 0.00 0.00 0.00 70 1013.2
20260906034601 85 0 0.9 4.3 0.00 0.00 0.00 70 1013.4
20260906034033 85 237 1.7 3.5 0.00 0.00 0.00 69 1013.3
20260906033533 85 219 0.9 2.6 0.00 0.00 0.00 68 1013.2
20260906033049 85 0 0.0 2.6 0.00 0.00 0.00 67 1013.2
20260906032533 85 162 0.9 2.6 0.00 0.00 0.00 67 1013.4
20260906032031 85 165 0.9 2.6 0.00 0.00 0.00 67 1013.4
20260906031601 86 137 0.9 2.6 0.00 0.00 0.00 66 1013.3
20260906031034 86 145 0.9 4.3 0.00 0.00 0.00 66 1013.4
20260906030534 86 150 0.9 5.2 0.00 0.00 0.00 66 1013.4
20260906030053 86 187 1.7 6.1 0.00 0.00 0.00 65 1013.4
20260906025534 86 193 2.6 7.8 0.00 0.00 0.00 65 1013.4
20260906025031 86 169 1.7 7.8 0.00 0.00 0.00 64 1013.4
20260906024550 87 158 4.3 7.8 0.00 0.00 0.00 64 1013.4
20260906024035 87 117 3.5 7.8 0.00 0.00 0.00 64 1013.1
20260906023534 87 179 4.3 7.8 0.00 0.00 0.00 64 1012.9
20260906023050 87 141 3.5 7.0 0.00 0.00 0.00 64 1012.8
20260906022534 87 168 3.5 8.7 0.00 0.00 0.00 63 1012.8
20260906022038 87 164 3.5 8.7 0.00 0.00 0.00 63 1012.7
20260906021600 87 200 4.3 9.6 0.00 0.00 0.00 63 1012.6
20260906021033 88 215 3.5 9.6 0.00 0.00 0.00 62 1012.5
20260906020534 88 178 4.3 9.6 0.00 0.00 0.00 62 1012.4
20260906020100 88 139 4.3 9.6 0.00 0.00 0.00 62 1012.4
20260906015534 88 147 0.9 6.1 0.00 0.00 0.00 62 1012.3
20260906015034 89 156 2.6 7.0 0.00 0.00 0.00 61 1012.3
20260906014559 89 144 4.3 7.8 0.00 0.00 0.00 61 1012.2
20260906014033 89 167 3.5 8.7 0.00 0.00 0.00 60 1012.2
20260906013534 89 165 3.5 8.7 0.00 0.00 0.00 59 1012.2
20260906013052 90 113 4.3 10.4 0.00 0.00 0.00 59 1012.1
20260906012533 90 137 5.2 14.8 0.00 0.00 0.00 59 1012.2
20260906012034 90 161 7.0 14.8 0.00 0.00 0.00 58 1012.1
20260906011551 91 129 5.2 13.0 0.00 0.00 0.00 58 1012.0
20260906011037 91 139 7.0 13.0 0.00 0.00 0.00 57 1011.9
20260906010533 92 122 7.8 14.8 0.00 0.00 0.00 56 1011.8
20260906010056 93 128 7.8 14.8 0.00 0.00 0.00 52 1011.8
20260906005530 94 109 0.9 2.6 0.00 0.00 0.00 47 1011.6
20260906005033 94 157 0.9 4.3 0.00 0.00 0.00 47 1011.5
20260906004600 95 131 1.7 5.2 0.00 0.00 0.00 47 1011.5
20260906004033 95 251 2.6 5.2 0.00 0.00 0.00 46 1011.4
20260906003534 95 119 2.6 5.2 0.00 0.00 0.00 46 1011.4
20260906003053 96 155 3.5 5.2 0.00 0.00 0.00 46 1011.4
20260906002534 96 156 3.5 7.8 0.00 0.00 0.00 46 1011.5
20260906002031 96 204 3.5 7.8 0.00 0.00 0.00 46 1011.5
20260906001600 97 148 2.6 6.1 0.00 0.00 0.00 45 1011.5
20260906001030 97 122 2.6 5.2 0.00 0.00 0.00 45 1011.5
20260906000534 97 174 2.6 7.0 0.00 0.00 0.00 45 1011.5
20260906000100 97 103 2.6 7.0 0.00 0.00 0.00 45 1011.4
20260905235534 98 110 3.5 6.1 0.00 0.00 0.00 44 1011.5
20260905235034 98 141 2.6 5.2 0.00 0.00 0.00 44 1011.4
20260905234558 98 246 0.0 5.2 0.00 0.00 0.00 45 1011.4
20260905234035 98 134 2.6 7.8 0.00 0.00 0.00 44 1011.3
20260905233534 98 122 3.5 8.7 0.00 0.00 0.00 44 1011.3
20260905233100 98 120 4.3 8.7 0.00 0.00 0.00 44 1011.3
20260905232534 99 143 1.7 7.0 0.00 0.00 0.00 43 1011.2
20260905232034 99 153 1.7 6.1 0.00 0.00 0.00 43 1011.3
20260905231549 99 248 1.7 6.1 0.00 0.00 0.00 43 1011.3
20260905231033 98 224 0.0 5.2 0.00 0.00 0.00 44 1011.4
20260905230534 98 155 2.6 7.0 0.00 0.00 0.00 44 1011.4
20260905230103 98 103 3.5 7.0 0.00 0.00 0.00 44 1011.4
20260905225535 98 108 3.5 8.7 0.00 0.00 0.00 44 1011.3